Weather History for Vacaville, CA

Change the Weather History Date:

Friday, July 12, 2013

  Actual Average Record
Temperature  
Mean Temperature 73 °F -  
Max Temperature 91 °F 94 °F 110 °F (1990)
Min Temperature 55 °F 56 °F 48 °F (2001)
Cooling Degree Days 8    
Growing Degree Days 23 (Base 50)    
Moisture  
Dew Point 52 °F    
Average Humidity 54    
Maximum Humidity 84    
Minimum Humidity 22    
Precipitation  
Precipitation 0.00 in - - ()
Sea Level Pressure  
Sea Level Pressure 29.85 in    
Wind  
Wind Speed 9 mph (SW)    
Max Wind Speed 13 mph    
Max Gust Speed -    
Visibility 10 miles    
Events      
Averages and records for this station are not official NWS values.
T = Trace of Precipitation, MM = Missing Value Source: NWS Daily Summary

Daily Weather History Graph

Daily Weather History Graph

Search for Another Location

Airport:

Trip Planner

Search our weather history database for the weather conditions in past years. The results will help you decide how hot, cold, wet, or windy it might be!

Date:

Astronomy

Jul. 12, 2013 Rise Set
Actual Time 5:54 AM PDT 8:32 PM PDT
Civil Twilight 5:23 AM PDT 9:03 PM PDT
Nautical Twilight 4:44 AM PDT 9:41 PM PDT
Astronomical Twilight 4:01 AM PDT 10:24 PM PDT
Moon 10:12 AM PDT (7/12) 10:50 PM PDT (7/12)
Length of Visible Light 15h 39m
Length of Day
14h 37m
Waxing Crescent, 18% of the Moon is Illuminated
Jul 12
Waxing Crescent
Jul 15
First Quarter
Jul 22
Full
Jul 29
Last Quarter
Aug 6
New

Hourly Weather History & Observations

Time (PDT) Temp. Heat Index Dew Point Humidity Pressure Visibility Wind Dir Wind Speed Gust Speed Precip Events Conditions
12:53 AM 60.1 °F - 51.1 °F 72% 29.83 in 10.0 mi SW 12.7 mph - N/A   Clear
1:53 AM 59.0 °F - 51.1 °F 75% 29.84 in 10.0 mi SW 12.7 mph - N/A   Clear
2:53 AM 57.9 °F - 51.1 °F 78% 29.85 in 10.0 mi SW 10.4 mph - N/A   Clear
3:53 AM 57.0 °F - 51.1 °F 81% 29.85 in 10.0 mi SW 11.5 mph - N/A   Clear
4:53 AM 55.9 °F - 51.1 °F 84% 29.86 in 10.0 mi SW 11.5 mph - N/A   Clear
5:53 AM 55.9 °F - 51.1 °F 84% 29.87 in 10.0 mi SW 8.1 mph - N/A   Clear
6:53 AM 57.0 °F - 51.1 °F 81% 29.88 in 10.0 mi WSW 6.9 mph - N/A   Clear
7:53 AM 61.0 °F - 52.0 °F 72% 29.90 in 10.0 mi WSW 5.8 mph - N/A   Clear
8:53 AM 64.9 °F - 52.0 °F 63% 29.91 in 10.0 mi Calm Calm - N/A   Clear
9:53 AM 69.1 °F - 52.0 °F 54% 29.91 in 10.0 mi SW 3.5 mph - N/A   Clear
10:53 AM 73.0 °F - 53.1 °F 49% 29.91 in 10.0 mi SW 3.5 mph - N/A   Clear
11:53 AM 77.0 °F - 53.1 °F 43% 29.91 in 10.0 mi South 8.1 mph - N/A   Clear
12:53 PM 80.1 °F 79.9 °F 53.1 °F 39% 29.89 in 10.0 mi Variable 5.8 mph - N/A   Clear
1:53 PM 84.0 °F 82.5 °F 53.1 °F 34% 29.88 in 10.0 mi South 6.9 mph - N/A   Clear
2:53 PM 84.9 °F 83.2 °F 53.1 °F 33% 29.85 in 10.0 mi SSW 10.4 mph - N/A   Clear
3:53 PM 88.0 °F - 52.0 °F 29% 29.83 in 10.0 mi South 10.4 mph - N/A   Clear
4:53 PM 89.1 °F 86.7 °F 53.1 °F 29% 29.81 in 10.0 mi South 10.4 mph - N/A   Clear
5:53 PM 91.0 °F - 46.9 °F 22% 29.80 in 10.0 mi SW 11.5 mph - N/A   Clear
6:53 PM 84.9 °F - 51.1 °F 31% 29.81 in 10.0 mi SW 12.7 mph - N/A   Clear
7:53 PM 79.0 °F - 53.1 °F 40% 29.81 in 10.0 mi SW 8.1 mph - N/A   Clear
8:53 PM 73.9 °F - 52.0 °F 46% 29.81 in 10.0 mi SW 9.2 mph - N/A   Clear
9:53 PM 73.0 °F - 51.1 °F 46% 29.82 in 10.0 mi SW 6.9 mph - N/A   Clear
10:53 PM 66.0 °F - 51.1 °F 59% 29.83 in 10.0 mi WSW 8.1 mph - N/A   Clear
11:53 PM 64.0 °F - 51.1 °F 63% 29.83 in 10.0 mi WSW 9.2 mph - N/A   Clear